Falls City, NE

9:07 AM CDT on April 26, 2017 (GMT -0500)
Brenner

Weather History for KFNB - November, 2012

Change the Weather History Date:

Sunday, November 4, 2012

  Actual Average Record
Temperature  
Mean Temperature 48 °F -  
Max Temperature 63 °F 55 °F 79 °F (1978)
Min Temperature 32 °F 33 °F 0 °F (1991)
Degree Days  
Heating Degree Days 18    
Moisture  
Dew Point 36 °F    
Average Humidity 67    
Maximum Humidity 86    
Minimum Humidity 38    
Precipitation  
Precipitation 0.05 in - - ()
Sea Level Pressure  
Sea Level Pressure 30.12 in    
Wind  
Wind Speed 4 mph (South)    
Max Wind Speed 16 mph    
Max Gust Speed 21 mph    
Visibility 10 miles    
Events Rain    
Averages and records for this station are not official NWS values.
T = Trace of Precipitation, MM = Missing Value Source: NWS Daily Summary

Daily Weather History Graph

Daily Weather History Graph

Search for Another Location

Airport or City:

Trip Planner

Search our weather history database for the weather conditions in past years. The results will help you decide how hot, cold, wet, or windy it might be!

Date:

Astronomy

Nov. 04, 2012 Rise Set
Actual Time 6:55 AM CST 5:15 PM CST
Civil Twilight 6:27 AM CST 5:44 PM CST
Nautical Twilight 5:55 AM CST 6:16 PM CST
Astronomical Twilight 5:23 AM CST 6:47 PM CST
Moon 9:54 PM CST (11/4) 11:39 AM CST (11/4)
Length of Visible Light 11h 16m
Length of Day
10h 20m
Waning Gibbous, 72% of the Moon is Illuminated
Nov 4
Waning Gibbous
Nov 6
Last Quarter
Nov 13
New
Nov 20
First Quarter
Nov 28
Full

Hourly Weather History & Observations

Time (CST) Temp. Windchill Dew Point Humidity Pressure Visibility Wind Dir Wind Speed Gust Speed Precip Events Conditions
12:53 AM 35.1 °F 32.2 °F 28.9 °F 78% 30.20 in 10.0 mi South 3.5 mph - N/A   Mostly Cloudy
1:53 AM 35.6 °F - 28.4 °F 75% 30.19 in 10.0 mi Calm Calm - N/A   Mostly Cloudy
1:53 AM 32.0 °F - 28.0 °F 85% 30.20 in 10.0 mi Calm Calm - N/A   Clear
2:53 AM 33.1 °F - 28.9 °F 85% 30.21 in 10.0 mi Calm Calm - N/A   Clear
3:53 AM 35.1 °F - 28.9 °F 78% 30.19 in 10.0 mi Calm Calm - N/A   Clear
4:53 AM 36.0 °F - 32.0 °F 86% 30.20 in 10.0 mi Calm Calm - N/A   Mostly Cloudy
5:53 AM 36.0 °F - 32.0 °F 86% 30.21 in 10.0 mi Calm Calm - N/A   Overcast
6:53 AM 36.0 °F - 32.0 °F 86% 30.20 in 10.0 mi Calm Calm - N/A   Scattered Clouds
7:53 AM 37.0 °F - 33.1 °F 86% 30.22 in 8.0 mi Calm Calm - N/A   Scattered Clouds
8:53 AM 42.1 °F - 36.0 °F 79% 30.21 in 9.0 mi Calm Calm - N/A   Scattered Clouds
9:53 AM 50.0 °F - 36.0 °F 59% 30.18 in 10.0 mi South 8.1 mph - N/A   Partly Cloudy
10:53 AM 57.0 °F - 36.0 °F 45% 30.17 in 10.0 mi South 6.9 mph - N/A   Mostly Cloudy
11:53 AM 60.1 °F - 37.0 °F 42% 30.12 in 10.0 mi South 10.4 mph - N/A   Clear
12:53 PM 61.0 °F - 37.0 °F 41% 30.07 in 10.0 mi South 16.1 mph 19.6 mph N/A   Clear
1:53 PM 62.1 °F - 37.0 °F 39% 30.04 in 10.0 mi South 15.0 mph 19.6 mph N/A   Clear
2:53 PM 63.0 °F - 37.0 °F 38% 30.03 in 10.0 mi South 11.5 mph 20.7 mph N/A   Clear
3:53 PM 62.1 °F - 36.0 °F 38% 30.01 in 10.0 mi SSE 13.8 mph - N/A   Clear
4:53 PM 59.0 °F - 37.0 °F 44% 30.01 in 8.0 mi SE 9.2 mph - N/A   Mostly Cloudy
5:53 PM 57.9 °F - 37.9 °F 47% 30.03 in 10.0 mi SSE 4.6 mph - 0.00 in Rain Light Rain
6:53 PM 54.0 °F - 42.1 °F 64% 30.05 in 10.0 mi SSE 5.8 mph - 0.00 in Rain Light Rain
7:53 PM 52.0 °F - 43.0 °F 71% 30.04 in 10.0 mi South 9.2 mph - 0.02 in Rain Light Rain
8:53 PM 51.1 °F - 46.0 °F 83% 30.04 in 10.0 mi South 6.9 mph - 0.02 in Rain Light Rain
9:53 PM 51.1 °F - 45.0 °F 80% 30.03 in 10.0 mi WNW 5.8 mph - 0.00 in   Overcast
10:53 PM 48.9 °F - 45.0 °F 86% 30.01 in 10.0 mi NW 4.6 mph - 0.01 in   Overcast